Homestead AFB, FL

9:16 AM EDT on August 23, 2017 (GMT -0400)
Dade County-Homestead Regional

Weather History for KHST - February, 2012

Change the Weather History Date:

Monday, February 6, 2012

  Actual Average Record
Temperature  
Mean Temperature 72 °F -  
Max Temperature 77 °F 77 °F 87 °F (1949)
Min Temperature 66 °F 54 °F 29 °F (1947)
Cooling Degree Days 6    
Growing Degree Days 22 (Base 50)    
Moisture  
Dew Point 69 °F    
Average Humidity 93    
Maximum Humidity 100    
Minimum Humidity 73    
Precipitation  
Precipitation 1.88 in - - ()
Sea Level Pressure  
Sea Level Pressure 30.03 in    
Wind  
Wind Speed 6 mph (SE)    
Max Wind Speed 20 mph    
Max Gust Speed 22 mph    
Visibility 8 miles    
Events Rain , Thunderstorm    
Averages and records for this station are not official NWS values.
T = Trace of Precipitation, MM = Missing Value Source: NWS Daily Summary

Daily Weather History Graph

Daily Weather History Graph

Search for Another Location

Airport or City:

Trip Planner

Search our weather history database for the weather conditions in past years. The results will help you decide how hot, cold, wet, or windy it might be!

Date:

Astronomy

Feb. 06, 2012 Rise Set
Actual Time 7:02 AM EST 6:08 PM EST
Civil Twilight 6:38 AM EST 6:32 PM EST
Nautical Twilight 6:11 AM EST 7:00 PM EST
Astronomical Twilight 5:44 AM EST 7:27 PM EST
Moon 5:11 PM EST (2/6) 5:50 AM EST (2/6)
Length of Visible Light 11h 53m
Length of Day
11h 06m
Waxing Gibbous, 98% of the Moon is Illuminated
Feb 6
Waxing Gibbous
Feb 7
Full
Feb 14
Last Quarter
Feb 21
New
Feb 29
First Quarter

Hourly Weather History & Observations

Time (EST) Temp. Dew Point Humidity Pressure Visibility Wind Dir Wind Speed Gust Speed Precip Events Conditions
12:03 AM 66.2 °F 66.2 °F 100% 30.06 in 1.5 mi ESE 5.8 mph - N/A Rain Heavy Rain
12:13 AM 66.2 °F 66.2 °F 100% 30.05 in 3.0 mi West 5.8 mph - N/A Rain Heavy Rain
12:21 AM 68.0 °F 66.2 °F 94% 30.04 in 5.0 mi NE 8.1 mph - N/A Rain , Thunderstorm Light Thunderstorms and Rain
12:34 AM 68.0 °F 66.2 °F 94% 30.04 in 10.0 mi NE 6.9 mph - N/A Thunderstorm Thunderstorm
12:43 AM 69.8 °F 66.2 °F 88% 30.04 in 10.0 mi ENE 4.6 mph - N/A   Overcast
12:55 AM 69.3 °F 67.5 °F 94% 30.03 in 10.0 mi NNE 8.1 mph - 0.56 in   Mostly Cloudy
12:57 AM 69.8 °F 68.0 °F 94% 30.01 in 10.0 mi North 10.4 mph - N/A   Light Drizzle
1:08 AM 69.8 °F 68.0 °F 94% 30.01 in 10.0 mi North 6.9 mph - N/A   Partly Cloudy
1:55 AM 69.4 °F 68.2 °F 96% 30.02 in 10.0 mi Calm Calm - 0.00 in   Mostly Cloudy
2:31 AM 69.8 °F 68.0 °F 94% 30.01 in 10.0 mi Calm Calm - N/A   Light Drizzle
2:55 AM 69.1 °F 68.2 °F 97% 30.01 in 10.0 mi Calm Calm - 0.00 in Rain Light Rain
3:24 AM 69.8 °F 68.0 °F 94% 30.00 in 10.0 mi Calm Calm - N/A   Clear
3:55 AM 69.4 °F 68.9 °F 98% 30.00 in 10.0 mi Calm Calm - 0.00 in   Clear
4:25 AM 69.8 °F 69.8 °F 100% 29.99 in 10.0 mi Calm Calm - N/A   Light Drizzle
4:55 AM 69.4 °F 68.9 °F 98% 29.99 in 9.0 mi Calm Calm - 0.01 in Rain Light Rain
5:55 AM 69.4 °F 68.9 °F 98% 30.01 in 10.0 mi Calm Calm - 0.01 in   Light Drizzle
6:19 AM 69.8 °F 69.8 °F 100% 30.02 in 10.0 mi Calm Calm - N/A   Light Drizzle
6:28 AM 69.8 °F 68.0 °F 94% 30.03 in 10.0 mi Calm Calm - N/A   Clear
6:43 AM 69.8 °F 69.8 °F 100% 30.03 in 10.0 mi South 3.5 mph - N/A   Light Drizzle
6:55 AM 69.8 °F 68.9 °F 97% 30.03 in 8.0 mi SSW 3.5 mph - 0.01 in Rain Light Rain
6:59 AM 69.8 °F 69.8 °F 100% 30.03 in 9.0 mi ESE 9.2 mph - N/A Rain Light Rain
7:08 AM 69.8 °F 68.0 °F 94% 30.04 in 9.0 mi SE 10.4 mph - N/A Rain Light Rain
7:11 AM 69.8 °F 68.0 °F 94% 30.03 in 2.5 mi SE 12.7 mph 20.7 mph N/A Rain Light Rain
7:14 AM 69.8 °F 68.0 °F 94% 30.05 in 2.0 mi SE 12.7 mph 20.7 mph N/A Rain Rain
7:22 AM 68.0 °F 68.0 °F 100% 30.04 in 3.0 mi SE 8.1 mph - N/A Rain Rain
7:24 AM 68.0 °F 68.0 °F 100% 30.04 in 3.0 mi SE 8.1 mph - N/A Rain Light Rain
7:29 AM 68.0 °F 68.0 °F 100% 30.05 in 5.0 mi SE 6.9 mph - N/A Rain Light Rain
7:41 AM 68.0 °F 68.0 °F 100% 30.03 in 8.0 mi SE 4.6 mph - N/A Rain Light Rain
7:46 AM 69.8 °F 68.0 °F 94% 30.04 in 10.0 mi SSE 5.8 mph - N/A Rain Light Rain
7:55 AM 69.1 °F 68.0 °F 96% 30.04 in 10.0 mi SE 4.6 mph - 0.11 in Rain Light Rain
8:04 AM 69.8 °F 68.0 °F 94% 30.05 in 10.0 mi SE 5.8 mph - N/A   Clear
8:55 AM 71.1 °F 66.9 °F 87% 30.06 in 10.0 mi SE 9.2 mph - 0.00 in   Overcast
9:55 AM 73.9 °F 68.2 °F 82% 30.07 in 10.0 mi SE 10.4 mph - 0.01 in   Mostly Cloudy
10:55 AM 75.0 °F 68.7 °F 81% 30.09 in 10.0 mi SE 8.1 mph - N/A   Overcast
11:55 AM 76.6 °F 69.3 °F 78% 30.07 in 10.0 mi SE 8.1 mph - N/A   Overcast
12:55 PM 76.8 °F 69.4 °F 78% 30.05 in 10.0 mi SE 9.2 mph 16.1 mph 0.00 in   Mostly Cloudy
1:03 PM 77.0 °F 69.8 °F 78% 30.04 in 10.0 mi SSE 11.5 mph 18.4 mph N/A   Light Drizzle
1:55 PM 76.3 °F 69.6 °F 80% 30.02 in 10.0 mi SSE 16.1 mph 20.7 mph 0.00 in   Mostly Cloudy
2:55 PM 77.9 °F 68.5 °F 73% 30.00 in 10.0 mi SE 10.4 mph 18.4 mph N/A   Mostly Cloudy
3:55 PM 76.5 °F 69.3 °F 78% 30.00 in 10.0 mi SSE 9.2 mph - N/A   Mostly Cloudy
4:55 PM 74.8 °F 66.4 °F 75% 30.00 in 10.0 mi SSE 5.8 mph - N/A   Partly Cloudy
5:55 PM 75.4 °F 68.2 °F 78% 30.00 in 10.0 mi ESE 5.8 mph - N/A   Scattered Clouds
6:31 PM 71.6 °F 68.0 °F 88% 30.01 in 10.0 mi Variable 5.8 mph - N/A Rain Light Rain
6:46 PM 71.6 °F 69.8 °F 94% 30.01 in 10.0 mi SE 5.8 mph - N/A   Scattered Clouds
6:55 PM 72.0 °F 69.3 °F 91% 30.01 in 10.0 mi SE 5.8 mph - 0.00 in   Scattered Clouds
7:05 PM 71.6 °F 69.8 °F 94% 30.01 in 10.0 mi ESE 4.6 mph - N/A   Scattered Clouds
7:43 PM 71.6 °F 69.8 °F 94% 30.02 in 8.0 mi East 6.9 mph - N/A Rain Light Rain
7:55 PM 72.0 °F 69.6 °F 92% 30.02 in 5.0 mi East 8.1 mph - 0.01 in Rain Light Rain
8:01 PM 71.6 °F 69.8 °F 94% 30.03 in 4.0 mi SSE 4.6 mph - N/A Rain Light Rain
8:08 PM 71.6 °F 69.8 °F 94% 30.03 in 2.0 mi SSW 19.6 mph - N/A Rain Heavy Rain
8:11 PM 71.6 °F 69.8 °F 94% 30.04 in 1.5 mi South 13.8 mph 21.9 mph N/A Rain Heavy Rain
8:24 PM 71.6 °F 69.8 °F 94% 30.04 in 2.0 mi Variable 4.6 mph - N/A Rain Rain
8:41 PM 69.8 °F 69.8 °F 100% 30.04 in 2.0 mi Calm Calm - N/A Rain Heavy Rain
8:45 PM 69.8 °F 69.8 °F 100% 30.04 in 2.0 mi Calm Calm - N/A Rain Rain
8:55 PM 70.2 °F 69.1 °F 96% 30.04 in 2.5 mi SE 3.5 mph - 0.95 in Rain Light Rain
9:05 PM 69.8 °F 69.8 °F 100% 30.04 in 3.0 mi NE 3.5 mph - N/A Rain Light Rain
9:20 PM 69.8 °F 69.8 °F 100% 30.04 in 6.0 mi North 3.5 mph - N/A Rain Light Rain
9:30 PM 71.6 °F 69.8 °F 94% 30.04 in 7.0 mi Calm Calm - N/A Rain Light Rain
9:45 PM 71.6 °F 69.8 °F 94% 30.04 in 10.0 mi NE 5.8 mph - N/A   Light Drizzle
9:55 PM 71.2 °F 69.3 °F 93% 30.04 in 10.0 mi ENE 5.8 mph - 0.18 in   Light Drizzle
10:40 PM 69.8 °F 69.8 °F 100% 30.04 in 5.0 mi West 5.8 mph - N/A Rain Light Rain
10:55 PM 71.4 °F 69.4 °F 93% 30.04 in 10.0 mi WSW 4.6 mph - 0.02 in Rain Light Rain
10:58 PM 71.6 °F 69.8 °F 94% 30.04 in 10.0 mi Calm Calm - N/A   Mostly Cloudy
11:55 PM 72.0 °F 70.5 °F 95% 30.02 in 10.0 mi ESE 3.5 mph - 0.01 in   Scattered Clouds